Location: Azul
(36.7830°S, 59.8500°W)
Time: 20:50:11
(UTC-03:00)

RS-44 - Pass Details

Date: 24 September 2024
Orbit: 1174 x 1511 km, 82.5° (Epoch: 11 October)

Event Time Altitude Azimuth Distance (km) Brightness Sun altitude
Rises 02:29:44 0° 186° (S) 4,479 ? -46.2°
Reaches altitude 10° 02:32:33 10° 183° (S) 3,540 ? -45.8°
Enters shadow 02:37:42 42° 171° (S) 2,003 ? -45.2°
